Hourly Weather Agua Prieta

Today, 23 April, Friday

Time Temperature Precipitation Wind Pressure Humidity
00:00 +10°C° 0 mm 2 mps 656 mmHg 31%
01:00 +10°C° 0 mm 2 mps 656 mmHg 35%
02:00 +9°C° 0 mm 2 mps 656 mmHg 38%
03:00 +8°C° 0 mm 2 mps 656 mmHg 41%
04:00 +8°C° 0 mm 2 mps 656 mmHg 44%
05:00 +7°C° 0 mm 2 mps 656 mmHg 47%
06:00 +9°C° 0 mm 2 mps 657 mmHg 43%
07:00 +12°C° 0 mm 2 mps 658 mmHg 40%
08:00 +14°C° 0 mm 2 mps 659 mmHg 36%
09:00 +16°C° 0 mm 3 mps 659 mmHg 32%
10:00 +18°C° 0 mm 3 mps 660 mmHg 27%
11:00 +20°C° 0 mm 4 mps 660 mmHg 23%
12:00 +21°C° 0 mm 5 mps 660 mmHg 21%
13:00 +23°C° 0 mm 6 mps 659 mmHg 18%
14:00 +24°C° 0 mm 7 mps 659 mmHg 15%
15:00 +24°C° 0 mm 7 mps 659 mmHg 15%
16:00 +23°C° 0 mm 8 mps 659 mmHg 15%
17:00 +23°C° 0 mm 8 mps 659 mmHg 14%
18:00 +21°C° 0 mm 7 mps 659 mmHg 17%
19:00 +19°C° 0 mm 5 mps 659 mmHg 20%
20:00 +17°C° 0 mm 4 mps 659 mmHg 23%
21:00 +16°C° 0 mm 3 mps 659 mmHg 25%
22:00 +16°C° 0 mm 3 mps 659 mmHg 27%
23:00 +15°C° 0 mm 2 mps 659 mmHg 29%

Tomorrow, 24 April, Saturday

Time Temperature Precipitation Wind Pressure Humidity
00:00 +14°C° 0 mm 2 mps 659 mmHg 31%
01:00 +13°C° 0 mm 1 mps 659 mmHg 34%
02:00 +12°C° 0 mm 1 mps 659 mmHg 36%
03:00 +12°C° 0 mm 1 mps 659 mmHg 37%
04:00 +10°C° 0 mm 0 mps 659 mmHg 39%
05:00 +10°C° 0 mm 0 mps 658 mmHg 40%
06:00 +12°C° 0 mm 0 mps 659 mmHg 35%
07:00 +16°C° 0 mm 1 mps 660 mmHg 30%
08:00 +19°C° 0 mm 1 mps 661 mmHg 25%
09:00 +20°C° 0 mm 2 mps 661 mmHg 22%
10:00 +23°C° 0 mm 2 mps 662 mmHg 18%
11:00 +25°C° 0 mm 3 mps 662 mmHg 15%
12:00 +26°C° 0 mm 3 mps 661 mmHg 14%
13:00 +28°C° 0 mm 4 mps 661 mmHg 12%
14:00 +29°C° 0 mm 4 mps 661 mmHg 10%
15:00 +29°C° 0 mm 5 mps 660 mmHg 10%
16:00 +29°C° 0 mm 6 mps 660 mmHg 10%
17:00 +29°C° 0 mm 7 mps 659 mmHg 10%
18:00 +27°C° 0 mm 6 mps 659 mmHg 12%
19:00 +23°C° 0 mm 5 mps 659 mmHg 14%
20:00 +21°C° 0 mm 4 mps 659 mmHg 16%
21:00 +19°C° 0 mm 3 mps 659 mmHg 18%
22:00 +18°C° 0 mm 3 mps 658 mmHg 20%
23:00 +17°C° 0 mm 2 mps 658 mmHg 21%

Day after tomorrow, 25 April, Sunday

Time Temperature Precipitation Wind Pressure Humidity
00:00 +16°C° 0 mm 2 mps 658 mmHg 23%
01:00 +15°C° 0 mm 1 mps 658 mmHg 25%
02:00 +14°C° 0 mm 1 mps 657 mmHg 26%
03:00 +14°C° 0 mm 1 mps 657 mmHg 27%
04:00 +13°C° 0 mm 1 mps 657 mmHg 28%
05:00 +13°C° 0 mm 1 mps 657 mmHg 29%
06:00 +15°C° 0 mm 2 mps 658 mmHg 25%
07:00 +17°C° 0 mm 2 mps 659 mmHg 22%
08:00 +20°C° 0 mm 2 mps 660 mmHg 19%
09:00 +22°C° 0 mm 3 mps 660 mmHg 16%
10:00 +26°C° 0 mm 5 mps 660 mmHg 12%
11:00 +28°C° 0 mm 6 mps 660 mmHg 9%
12:00 +29°C° 0 mm 7 mps 659 mmHg 8%
13:00 +31°C° 0 mm 8 mps 659 mmHg 7%
14:00 +32°C° 0 mm 10 mps 658 mmHg 6%
15:00 +31°C° 0 mm 10 mps 658 mmHg 6%
16:00 +31°C° 0 mm 10 mps 657 mmHg 7%
17:00 +29°C° 0 mm 11 mps 657 mmHg 7%
18:00 +26°C° 0 mm 9 mps 657 mmHg 10%
19:00 +23°C° 0 mm 8 mps 657 mmHg 13%
20:00 +20°C° 0 mm 7 mps 657 mmHg 16%
21:00 +19°C° 0 mm 6 mps 657 mmHg 17%
22:00 +17°C° 0 mm 5 mps 657 mmHg 18%
23:00 +15°C° 0 mm 4 mps 657 mmHg 18%

26 April, Monday

Time Temperature Precipitation Wind Pressure Humidity
00:00 +14°C° 0 mm 3 mps 656 mmHg 21%
01:00 +13°C° 0 mm 3 mps 656 mmHg 23%
02:00 +13°C° 0 mm 2 mps 656 mmHg 26%
03:00 +12°C° 0 mm 2 mps 655 mmHg 28%
04:00 +12°C° 0 mm 2 mps 655 mmHg 30%
05:00 +12°C° 0 mm 2 mps 655 mmHg 33%
06:00 +13°C° 0 mm 3 mps 656 mmHg 30%
07:00 +15°C° 0 mm 5 mps 656 mmHg 27%
08:00 +17°C° 0 mm 6 mps 657 mmHg 25%
09:00 +18°C° 0 mm 8 mps 657 mmHg 21%
10:00 +21°C° 0 mm 9 mps 657 mmHg 18%
11:00 +23°C° 0 mm 11 mps 657 mmHg 14%
12:00 +23°C° 0 mm 11 mps 657 mmHg 13%
13:00 +23°C° 0 mm 12 mps 656 mmHg 12%
14:00 +24°C° 0 mm 13 mps 656 mmHg 11%
15:00 +22°C° 0 mm 12 mps 656 mmHg 12%
16:00 +21°C° 0 mm 12 mps 655 mmHg 12%
17:00 +19°C° 0 mm 12 mps 655 mmHg 13%
18:00 +17°C° 0 mm 10 mps 655 mmHg 23%
19:00 +13°C° 0 mm 8 mps 655 mmHg 34%
20:00 +11°C° 0 mm 6 mps 655 mmHg 44%
21:00 +10°C° 0 mm 6 mps 655 mmHg 47%
22:00 +9°C° 0 mm 6 mps 656 mmHg 50%
23:00 +9°C° 0 mm 6 mps 656 mmHg 53%

27 April, Tuesday

Time Temperature Precipitation Wind Pressure Humidity
00:00 +8°C° 0 mm 6 mps 656 mmHg 56%
01:00 +8°C° 0 mm 6 mps 656 mmHg 59%
02:00 +7°C° 0 mm 6 mps 656 mmHg 62%
03:00 +7°C° 0 mm 5 mps 656 mmHg 67%
04:00 +7°C° 0 mm 4 mps 656 mmHg 73%
05:00 +7°C° 0 mm 3 mps 656 mmHg 78%
06:00 +8°C° 0 mm 3 mps 657 mmHg 72%
07:00 +9°C° 0 mm 3 mps 657 mmHg 66%
08:00 +10°C° 0 mm 3 mps 658 mmHg 59%
09:00 +12°C° 0 mm 3 mps 658 mmHg 50%
10:00 +14°C° 0 mm 4 mps 658 mmHg 41%
11:00 +17°C° 0 mm 4 mps 659 mmHg 32%
12:00 +17°C° 0 mm 5 mps 658 mmHg 27%
13:00 +19°C° 0 mm 6 mps 658 mmHg 23%
14:00 +20°C° 0 mm 7 mps 658 mmHg 19%
15:00 +20°C° 0 mm 8 mps 658 mmHg 19%
16:00 +18°C° 0 mm 8 mps 658 mmHg 19%
17:00 +18°C° 0 mm 9 mps 658 mmHg 19%
18:00 +16°C° 0 mm 8 mps 658 mmHg 23%
19:00 +14°C° 0 mm 6 mps 658 mmHg 26%
20:00 +12°C° 0 mm 5 mps 658 mmHg 30%
21:00 +11°C° 0 mm 4 mps 659 mmHg 33%
22:00 +10°C° 0 mm 3 mps 659 mmHg 37%
23:00 +9°C° 0 mm 3 mps 659 mmHg 40%

28 April, Wednesday

Time Temperature Precipitation Wind Pressure Humidity
00:00 +9°C° 0 mm 3 mps 659 mmHg 42%
01:00 +8°C° 0 mm 2 mps 659 mmHg 44%
02:00 +8°C° 0 mm 2 mps 659 mmHg 46%
03:00 +8°C° 0 mm 2 mps 659 mmHg 47%
04:00 +7°C° 0 mm 2 mps 659 mmHg 48%
05:00 +7°C° 0 mm 2 mps 660 mmHg 49%
06:00 +9°C° 0 mm 2 mps 660 mmHg 43%
07:00 +12°C° 0 mm 2 mps 661 mmHg 37%
08:00 +15°C° 0 mm 2 mps 662 mmHg 31%
09:00 +17°C° 0 mm 3 mps 663 mmHg 26%
10:00 +19°C° 0 mm 3 mps 663 mmHg 21%
11:00 +21°C° 0 mm 3 mps 663 mmHg 16%
12:00 +22°C° 0 mm 3 mps 663 mmHg 14%
13:00 +24°C° 0 mm 3 mps 662 mmHg 12%
14:00 +25°C° 0 mm 2 mps 662 mmHg 10%
15:00 +25°C° 0 mm 3 mps 662 mmHg 10%
16:00 +26°C° 0 mm 3 mps 662 mmHg 9%
17:00 +26°C° 0 mm 3 mps 661 mmHg 9%
18:00 +22°C° 0 mm 3 mps 661 mmHg 11%
19:00 +20°C° 0 mm 3 mps 661 mmHg 13%
20:00 +18°C° 0 mm 2 mps 661 mmHg 15%
21:00 +17°C° 0 mm 2 mps 661 mmHg 16%
22:00 +17°C° 0 mm 3 mps 661 mmHg 17%
23:00 +16°C° 0 mm 3 mps 662 mmHg 18%
Show more